Theta_e
294 294 294 294 294 294 293 293 293 293 292 292 292 292 291 291 291 291 290 290 290 290 290 289 289 289 289 289 288 288 288 288 288 288 288 287 288 288 288 288 287 287
294 294 293 293 293 293 293 293 292 292 292 292 292 291 291 291 291 290 290 290 290 290 289 289 289 289 289 289 288 288 288 288 288 287 288 287 288 288 288 288 288 288
293 292 292 292 292 292 291 291 291 291 291 290 290 290 290 290 290 289 289 289 289 289 289 289 288 288 288 288 287 287 287 287 287 287 287 287 288 288 288 288 288 287
292 291 291 291 291 291 290 290 290 290 290 290 289 289 289 289 288 288 288 288 288 288 287 287 287 287 287 287 287 287 287 287 287 287 287 287 287 287 287 287 287 287
291 291 290 290 290 290 290 289 289 289 289 289 289 288 288 288 288 288 287 287 287 287 287 287 286 287 286 287 287 287 287 287 287 287 287 287 287 287 287 287 287 287
290 290 290 290 290 289 289 289 289 289 289 288 288 288 288 288 287 287 287 287 287 286 286 286 286 286 286 286 286 287 287 287 287 287 287 287 287 287 287 287 287 287
290 290 290 290 289 289 289 289 289 289 288 288 288 288 288 287 287 287 287 286 286 286 286 286 286 286 286 286 286 286 286 286 286 286 286 286 286 286 286 286 286 286
290 290 289 289 289 289 289 289 289 289 288 288 288 288 288 287 287 287 287 286 286 286 286 286 286 286 286 286 286 286 286 286 286 286 286 286 286 286 286 285 285 285
290 289 289 289 289 290 289 289 289 288 288 288 288 288 287 287 287 287 287 286 286 286 286 285 285 286 285 285 285 286 285 285 285 285 285 285 285 285 285 285 285 285
289 289 289 289 289 289 289 288 288 288 288 288 288 287 287 287 287 287 287 286 286 285 285 285 285 285 285 285 285 285 285 285 285 285 285 285 285 284 284 284 284 284
290 290 289 289 289 289 288 288 288 288 288 288 288 287 287 287 287 287 286 286 285 285 285 285 285 285 285 285 285 285 285 285 285 285 284 284 284 284 284 284 284 284
290 289 289 289 289 288 288 288 288 288 288 288 288 287 287 287 286 286 286 285 285 284 284 284 284 284 284 284 284 285 284 284 284 284 284 284 284 284 283 283 283 283
289 289 289 289 289 288 288 288 288 288 288 288 287 287 287 286 286 286 285 285 284 284 284 284 284 284 284 284 284 284 284 284 284 284 284 284 284 283 283 283 283 283
289 289 289 289 288 288 288 288 288 288 288 287 287 287 287 286 286 285 285 284 284 284 284 284 284 284 284 284 284 284 284 284 284 284 284 283 283 283 283 283 282 282
289 289 289 289 288 288 288 288 287 287 287 287 287 287 286 286 285 285 284 284 284 284 284 284 284 284 284 284 284 284 284 284 284 284 283 283 283 282 282 282 282 282
289 289 289 288 288 288 288 287 287 287 287 287 287 286 286 285 285 284 284 283 283 283 283 283 283 284 284 284 284 284 284 284 283 283 283 283 282 282 282 281 281 281
289 289 288 288 288 288 288 287 287 287 287 287 286 286 286 285 285 284 283 283 283 283 283 283 283 283 283 283 283 283 283 283 283 283 282 282 282 281 281 280 280 280
289 288 288 288 288 288 287 287 287 287 287 286 286 286 285 285 284 284 283 283 283 283 283 283 283 283 283 283 283 283 283 283 282 282 282 281 281 280 280 280 279 279
289 288 288 288 288 287 287 287 287 287 286 286 286 286 285 284 284 283 283 283 283 283 283 283 283 283 283 283 283 283 282 282 282 282 281 281 280 280 279 279 279 278
288 288 288 288 288 287 287 287 287 287 286 286 286 285 285 284 283 283 282 282 283 283 283 283 283 283 283 283 282 282 282 281 281 281 281 280 280 279 279 278 278 278
288 288 288 288 288 287 287 287 287 287 286 286 286 285 284 283 283 283 282 282 282 283 283 283 282 282 282 282 282 282 281 281 281 280 280 280 279 279 278 278 277 277
288 288 288 288 287 287 287 287 287 286 286 286 285 285 284 283 283 282 282 282 282 282 283 283 282 282 282 282 282 281 281 281 280 280 280 279 279 278 278 278 277 277
288 288 288 288 287 287 287 287 287 286 286 286 285 284 283 283 282 282 282 282 282 282 282 282 282 282 282 281 281 281 280 280 280 280 279 279 278 278 278 277 277 277
288 288 288 287 287 287 287 287 287 286 286 285 285 284 283 282 282 282 282 282 282 282 282 282 282 281 281 281 281 280 280 279 279 279 279 278 278 278 277 277 277 277
288 288 288 287 287 287 287 286 286 286 285 285 284 283 282 282 282 282 282 282 282 282 282 282 282 281 281 280 280 280 279 279 279 278 278 278 278 278 277 277 276 275
288 288 287 287 287 287 286 286 286 286 285 285 284 283 282 282 281 281 282 282 281 281 281 281 281 281 280 280 279 279 278 278 278 278 278 278 278 276 275 275 274 274
Wind_Speed
6 5 5 6 6 7 8 8 9 10 11 11 12 13 13 14 15 15 16 17 18 18 18 19 19 19 20 20 21 21 21 22 22 22 22 22 23 24 24 25 26 27
3 4 4 4 5 6 6 7 8 9 10 11 12 13 14 15 16 17 18 19 20 20 21 21 22 22 23 23 24 24 25 25 25 26 26 26 26 27 27 28 28 29
2 2 3 3 4 5 5 6 7 8 9 9 10 12 13 14 15 16 16 17 18 19 20 20 21 22 23 23 24 25 26 27 28 28 29 30 30 30 31 32 32 33
0 1 2 3 4 4 5 6 7 8 9 10 11 12 13 13 14 14 15 15 15 16 17 17 18 19 20 21 22 24 25 26 28 29 30 31 32 33 33 35 36 36
2 2 2 3 4 5 6 7 9 10 11 11 12 12 13 13 13 14 14 15 15 15 16 17 18 19 20 22 23 24 26 27 28 29 31 32 33 34 35 36 38 39
3 3 3 4 5 6 7 8 10 11 12 13 13 13 13 13 14 14 14 15 16 17 18 19 20 21 23 24 26 27 28 29 30 31 31 33 33 34 36 37 39 40
3 4 4 5 6 7 9 10 12 13 14 15 15 15 15 15 15 16 16 17 18 19 20 21 23 24 26 27 28 29 31 31 32 32 33 33 34 35 35 36 38 39
4 4 5 6 8 10 12 14 15 16 16 17 17 17 17 17 18 18 19 20 21 22 23 24 26 27 28 30 31 32 33 33 33 34 34 34 35 36 37 38 39 40
4 4 6 8 11 13 15 16 17 17 17 17 18 18 19 19 20 21 21 22 23 24 25 26 28 29 30 32 33 33 34 34 33 34 34 35 36 37 39 40 41 42
4 6 8 11 13 14 16 16 17 17 17 18 19 19 20 20 21 22 22 23 24 25 27 28 29 31 32 33 33 33 33 33 33 33 34 36 37 39 40 41 42 43
7 9 11 13 14 15 16 17 18 18 19 19 20 21 21 22 22 23 23 24 26 27 28 29 31 32 33 33 33 33 33 32 33 34 35 37 39 40 41 41 42 42
9 11 12 14 16 17 17 18 19 20 20 21 22 23 23 23 23 24 24 25 27 28 29 30 32 32 33 33 33 32 32 32 33 35 37 38 40 40 41 41 41 41
10 12 14 15 17 18 19 20 20 21 22 23 24 24 24 24 24 24 25 27 28 29 30 31 32 32 32 32 32 32 32 33 35 36 38 40 41 41 41 41 41 41
12 13 15 16 17 18 19 20 21 22 23 24 25 25 25 25 25 25 26 28 29 30 30 31 31 31 32 31 31 32 33 34 36 38 40 41 41 42 42 41 41 40
13 15 16 16 16 18 19 21 22 23 24 24 25 25 25 25 25 26 27 29 29 30 30 31 31 31 31 31 31 33 34 36 37 39 40 42 42 42 42 41 41 40
15 16 16 15 16 17 19 21 22 23 24 25 25 25 25 26 26 27 29 29 30 30 30 30 30 30 30 30 31 33 35 36 38 40 41 42 42 42 42 41 40 40
16 16 15 16 17 18 20 22 23 24 25 25 25 26 26 26 27 28 29 30 30 30 30 30 29 29 29 30 31 32 35 37 39 40 41 41 42 42 42 41 40 39
16 16 16 17 18 20 21 23 24 25 25 26 26 26 26 26 27 29 29 30 30 30 30 29 28 28 29 30 31 32 34 36 38 40 40 41 41 41 40 40 40 40
16 16 17 18 19 21 22 24 25 26 26 26 26 26 26 27 28 29 29 29 29 29 29 28 28 28 29 30 31 32 34 36 37 39 39 40 40 39 39 40 40 40
17 17 18 20 21 22 23 25 26 26 26 27 27 26 27 27 28 29 29 28 29 29 29 28 28 28 29 30 31 32 34 35 37 38 39 39 39 39 39 39 39 39
18 19 20 22 23 23 24 25 26 27 27 28 27 27 27 28 29 29 28 28 28 28 29 28 27 28 29 30 31 32 33 35 36 37 38 39 39 39 38 38 38 37
20 20 22 24 24 24 25 26 27 28 28 29 28 28 28 28 29 29 28 28 28 28 28 28 27 28 29 30 31 32 33 35 36 37 38 38 38 38 37 37 36 35
21 23 24 25 25 25 26 26 27 28 29 29 29 28 28 28 29 28 28 28 28 28 28 28 28 28 29 30 31 31 32 34 35 36 37 37 36 36 36 35 34 33
24 25 26 26 26 26 26 27 27 28 29 30 29 29 28 29 29 28 27 27 27 28 28 29 29 29 29 30 30 30 32 33 34 35 36 36 36 35 34 34 33 33
26 26 27 27 27 27 26 27 28 29 30 30 29 29 29 29 29 28 27 27 27 27 28 29 30 30 29 30 30 30 30 32 33 34 34 34 35 35 35 34 34 34
28 28 28 28 28 27 27 27 28 29 30 30 29 29 29 29 28 27 27 27 27 27 27 28 30 30 29 30 29 28 28 29 30 32 33 34 34 34 35 35 35 35
Wind_Direction
71 61 44 30 22 19 16 9 6 2 358 355 353 351 349 346 343 339 337 335 334 333 333 333 333 333 334 334 335 335 335 336 335 335 334 332 331 330 328 327 325 324
61 46 30 13 4 2 356 353 350 345 343 342 339 338 336 333 331 330 329 328 328 328 328 328 328 329 329 330 330 331 331 331 331 331 330 329 328 327 326 324 323 322
50 29 8 350 345 343 342 344 341 336 336 334 330 328 326 325 325 324 324 324 323 323 323 324 325 326 326 327 328 328 329 329 328 328 327 327 326 325 324 323 322 321
297 322 323 324 331 336 340 341 335 334 334 331 329 326 324 324 323 322 321 320 320 320 319 320 321 321 322 323 324 324 325 325 325 325 324 324 324 322 322 321 320 320
247 277 297 313 328 336 337 334 331 332 332 330 329 326 323 322 320 319 318 316 316 316 317 318 318 320 321 322 322 323 323 323 323 322 321 321 321 321 321 320 319 319
248 272 299 318 328 332 331 330 332 334 332 330 329 327 324 320 318 317 316 316 318 318 319 321 321 323 323 323 324 323 323 322 321 321 319 319 319 319 320 319 318 318
263 289 306 317 325 328 330 332 333 331 329 327 327 326 323 321 319 319 319 321 322 323 324 324 325 325 325 324 324 323 323 322 321 321 320 320 319 319 319 318 316 315
278 298 310 319 326 327 327 327 325 323 323 323 323 323 322 322 321 321 322 323 323 324 325 325 325 325 325 324 323 322 322 322 322 322 322 321 321 320 319 317 315 313
283 302 314 320 321 321 320 319 318 319 320 321 322 322 322 322 321 321 321 322 323 324 324 324 324 324 323 323 322 322 322 323 324 323 323 322 321 320 318 317 315 313
289 306 314 315 315 316 317 318 319 320 320 321 321 321 321 321 320 319 320 321 322 322 322 323 323 323 323 323 323 323 323 324 324 323 323 322 321 320 319 317 316 315
297 307 311 312 314 317 319 320 320 320 320 320 320 320 320 320 319 318 318 319 320 320 321 322 322 323 323 323 323 324 324 324 324 323 322 321 321 320 319 318 317 316
297 304 309 313 316 319 320 319 319 319 319 320 320 320 319 318 318 317 317 318 319 320 320 321 322 323 323 323 323 324 324 323 323 322 321 321 320 319 318 318 317 317
296 304 310 313 315 317 317 318 318 319 319 319 319 318 317 317 316 315 316 317 318 319 320 321 323 323 323 323 323 323 323 322 322 321 321 320 319 319 319 319 319 319
298 305 308 309 311 313 315 317 318 318 318 317 316 315 315 314 313 314 316 317 318 319 320 322 323 324 324 323 324 323 323 322 322 321 320 320 320 320 321 322 322 322
296 299 302 303 306 312 316 318 318 316 315 315 314 314 313 312 312 314 316 317 317 319 320 322 323 324 324 324 324 324 323 323 322 321 321 321 321 323 324 325 325 324
289 292 294 296 300 310 317 319 317 316 316 315 314 313 312 312 312 314 316 316 317 318 320 322 323 324 324 324 324 324 324 323 322 321 322 322 323 325 326 327 327 325
283 286 287 289 296 306 314 319 319 318 317 315 313 312 311 311 313 314 315 315 316 318 319 321 323 324 324 324 324 325 324 323 322 322 322 323 325 327 328 328 326 324
277 280 283 285 292 301 310 318 320 319 318 316 313 311 310 311 312 313 314 315 315 317 319 321 324 324 324 324 324 324 324 322 321 321 322 324 326 328 327 326 325 324
274 277 280 284 289 297 307 316 319 318 318 315 312 310 309 310 311 312 313 314 314 316 318 321 324 323 324 324 324 324 323 322 321 322 323 325 326 327 326 325 324 324
272 275 280 284 287 294 304 313 317 318 317 315 312 309 308 308 310 311 312 312 313 315 317 321 323 323 323 323 323 324 323 321 322 323 324 325 326 326 325 324 324 323
271 276 280 283 285 291 302 310 315 316 316 314 311 308 307 307 308 309 311 311 313 315 317 320 323 322 322 322 322 323 322 322 322 323 324 325 325 325 323 322 322 322
273 277 280 281 283 290 300 308 313 315 314 312 309 306 305 306 307 309 310 310 312 314 316 319 322 321 321 321 321 322 322 322 322 323 323 324 324 323 321 320 321 321
274 277 278 279 282 290 299 307 312 313 313 311 308 305 304 305 306 307 308 309 312 314 315 318 320 320 320 320 322 323 322 322 322 322 322 322 321 320 318 318 319 319
274 275 276 278 283 290 299 306 310 311 311 309 306 303 303 305 306 306 307 309 311 312 314 317 318 319 320 320 322 323 323 322 322 320 320 320 320 318 317 317 319 321
274 274 275 278 283 290 298 304 308 310 309 307 304 302 303 304 305 306 306 307 309 311 313 315 316 318 319 320 322 323 322 321 319 319 319 319 318 318 319 321 323 325
273 273 275 278 283 290 298 303 306 308 308 306 302 301 303 304 305 305 304 305 307 309 311 313 314 316 318 320 322 323 320 318 316 316 318 319 319 321 321 321 323 323